• In Uzbekistan
  • List of Countries
  • For 7 days
  • Water Temperature
  • Satellite Maps
  • Weather Map
  • Weather Widgets
  • user-avatar
    Login

    Hourly Weather Kuldiga

    Today, 23 February, Friday

    Time Temperature Precipitation Wind Pressure Humidity
    00:00 -13°C° 0 mm 2 mps 768 mmHg 88%
    01:00 -13°C° 0 mm 2 mps 768 mmHg 88%
    02:00 -14°C° 0 mm 2 mps 768 mmHg 88%
    03:00 -14°C° 0 mm 2 mps 768 mmHg 88%
    04:00 -14°C° 0 mm 2 mps 767 mmHg 88%
    05:00 -14°C° 0 mm 2 mps 767 mmHg 87%
    06:00 -15°C° 0 mm 3 mps 767 mmHg 87%
    07:00 -15°C° 0 mm 4 mps 766 mmHg 85%
    08:00 -12°C° 0.1 mm 4 mps 766 mmHg 83%
    09:00 -11°C° 0.1 mm 4 mps 766 mmHg 81%
    10:00 -10°C° 0.1 mm 4 mps 765 mmHg 80%
    11:00 -10°C° 0.5 mm 4 mps 765 mmHg 82%
    12:00 -9°C° 0.5 mm 4 mps 765 mmHg 84%
    13:00 -9°C° 0.5 mm 4 mps 765 mmHg 86%
    14:00 -9°C° 0.5 mm 4 mps 764 mmHg 87%
    15:00 -9°C° 0.5 mm 4 mps 764 mmHg 89%
    16:00 -9°C° 0.5 mm 4 mps 764 mmHg 90%
    17:00 -9°C° 0.3 mm 4 mps 764 mmHg 91%
    18:00 -10°C° 0.3 mm 4 mps 764 mmHg 91%
    19:00 -10°C° 0.3 mm 4 mps 764 mmHg 91%
    20:00 -11°C° 0.2 mm 5 mps 765 mmHg 91%
    21:00 -12°C° 0.2 mm 5 mps 765 mmHg 91%
    22:00 -12°C° 0.2 mm 5 mps 766 mmHg 90%
    23:00 -12°C° 0.1 mm 5 mps 767 mmHg 90%

    Tomorrow, 24 February, Saturday

    Time Temperature Precipitation Wind Pressure Humidity
    00:00 -12°C° 0.1 mm 5 mps 768 mmHg 90%
    01:00 -12°C° 0.1 mm 4 mps 768 mmHg 89%
    02:00 -12°C° 0.1 mm 4 mps 769 mmHg 89%
    03:00 -12°C° 0.1 mm 4 mps 769 mmHg 89%
    04:00 -12°C° 0.1 mm 4 mps 770 mmHg 88%
    05:00 -12°C° 0 mm 4 mps 770 mmHg 89%
    06:00 -14°C° 0 mm 4 mps 771 mmHg 89%
    07:00 -14°C° 0 mm 4 mps 771 mmHg 90%
    08:00 -14°C° 0 mm 4 mps 772 mmHg 86%
    09:00 -12°C° 0 mm 4 mps 772 mmHg 82%
    10:00 -12°C° 0 mm 5 mps 772 mmHg 78%
    11:00 -12°C° 0 mm 5 mps 772 mmHg 77%
    12:00 -11°C° 0 mm 4 mps 772 mmHg 76%
    13:00 -10°C° 0 mm 4 mps 772 mmHg 75%
    14:00 -11°C° 0 mm 4 mps 772 mmHg 77%
    15:00 -11°C° 0 mm 4 mps 772 mmHg 78%
    16:00 -12°C° 0 mm 4 mps 772 mmHg 80%
    17:00 -12°C° 0 mm 4 mps 772 mmHg 83%
    18:00 -13°C° 0 mm 3 mps 772 mmHg 87%
    19:00 -14°C° 0 mm 3 mps 772 mmHg 90%
    20:00 -14°C° 0 mm 3 mps 772 mmHg 90%
    21:00 -14°C° 0 mm 3 mps 773 mmHg 91%
    22:00 -14°C° 0 mm 3 mps 773 mmHg 91%
    23:00 -14°C° 0 mm 3 mps 773 mmHg 92%

    Day after tomorrow, 25 February, Sunday

    Time Temperature Precipitation Wind Pressure Humidity
    00:00 -14°C° 0 mm 3 mps 773 mmHg 92%
    01:00 -15°C° 0 mm 3 mps 773 mmHg 92%
    02:00 -15°C° 0 mm 3 mps 773 mmHg 93%
    03:00 -15°C° 0 mm 3 mps 773 mmHg 93%
    04:00 -16°C° 0 mm 3 mps 773 mmHg 93%
    05:00 -16°C° 0 mm 3 mps 773 mmHg 93%
    06:00 -16°C° 0 mm 3 mps 773 mmHg 92%
    07:00 -16°C° 0 mm 3 mps 773 mmHg 92%
    08:00 -16°C° 0 mm 4 mps 773 mmHg 88%
    09:00 -15°C° 0 mm 4 mps 773 mmHg 83%
    10:00 -14°C° 0 mm 4 mps 773 mmHg 79%
    11:00 -14°C° 0 mm 4 mps 773 mmHg 78%
    12:00 -12°C° 0 mm 4 mps 773 mmHg 77%
    13:00 -12°C° 0 mm 4 mps 773 mmHg 76%
    14:00 -12°C° 0 mm 4 mps 773 mmHg 78%
    15:00 -12°C° 0 mm 4 mps 772 mmHg 79%
    16:00 -12°C° 0 mm 4 mps 772 mmHg 80%
    17:00 -14°C° 0 mm 4 mps 772 mmHg 83%
    18:00 -13°C° 0 mm 3 mps 772 mmHg 86%
    19:00 -13°C° 0 mm 3 mps 772 mmHg 88%
    20:00 -13°C° 0 mm 3 mps 772 mmHg 90%
    21:00 -13°C° 0 mm 3 mps 772 mmHg 91%
    22:00 -13°C° 0 mm 2 mps 772 mmHg 92%
    23:00 -13°C° 0 mm 2 mps 772 mmHg 93%

    26 February, Monday

    Time Temperature Precipitation Wind Pressure Humidity
    00:00 -13°C° 0 mm 2 mps 772 mmHg 93%
    01:00 -13°C° 0 mm 2 mps 772 mmHg 93%
    02:00 -13°C° 0 mm 2 mps 772 mmHg 93%
    03:00 -13°C° 0 mm 2 mps 772 mmHg 93%
    04:00 -13°C° 0 mm 2 mps 771 mmHg 93%
    05:00 -13°C° 0 mm 2 mps 771 mmHg 93%
    06:00 -14°C° 0 mm 3 mps 771 mmHg 93%
    07:00 -14°C° 0 mm 3 mps 771 mmHg 92%
    08:00 -13°C° 0.1 mm 3 mps 771 mmHg 88%
    09:00 -12°C° 0.1 mm 3 mps 771 mmHg 83%
    10:00 -10°C° 0.1 mm 4 mps 771 mmHg 78%
    11:00 -10°C° 0.1 mm 4 mps 771 mmHg 76%
    12:00 -10°C° 0.1 mm 4 mps 770 mmHg 75%
    13:00 -10°C° 0.1 mm 4 mps 770 mmHg 73%
    14:00 -9°C° 0 mm 3 mps 770 mmHg 74%
    15:00 -9°C° 0 mm 3 mps 770 mmHg 76%
    16:00 -10°C° 0 mm 3 mps 770 mmHg 78%
    17:00 -12°C° 0 mm 3 mps 769 mmHg 81%
    18:00 -13°C° 0 mm 3 mps 769 mmHg 85%
    19:00 -13°C° 0 mm 2 mps 769 mmHg 89%
    20:00 -14°C° 0.1 mm 3 mps 769 mmHg 88%
    21:00 -13°C° 0.1 mm 3 mps 769 mmHg 88%
    22:00 -13°C° 0.1 mm 3 mps 769 mmHg 88%
    23:00 -13°C° 0 mm 3 mps 769 mmHg 87%

    27 February, Tuesday

    Time Temperature Precipitation Wind Pressure Humidity
    00:00 -15°C° 0 mm 4 mps 769 mmHg 86%
    01:00 -15°C° 0 mm 4 mps 769 mmHg 86%
    02:00 -16°C° 0 mm 4 mps 769 mmHg 86%
    03:00 -17°C° 0 mm 5 mps 769 mmHg 87%
    04:00 -18°C° 0 mm 5 mps 769 mmHg 88%
    05:00 -18°C° 0 mm 5 mps 769 mmHg 87%
    06:00 -19°C° 0 mm 5 mps 769 mmHg 87%
    07:00 -19°C° 0 mm 5 mps 769 mmHg 86%
    08:00 -20°C° 0 mm 6 mps 769 mmHg 84%
    09:00 -20°C° 0 mm 6 mps 769 mmHg 82%
    10:00 -20°C° 0 mm 6 mps 770 mmHg 80%
    11:00 -18°C° 0 mm 6 mps 770 mmHg 79%
    12:00 -18°C° 0 mm 6 mps 770 mmHg 78%
    13:00 -18°C° 0 mm 6 mps 770 mmHg 77%
    14:00 -18°C° 0 mm 6 mps 770 mmHg 78%
    15:00 -20°C° 0 mm 6 mps 770 mmHg 79%
    16:00 -20°C° 0 mm 6 mps 771 mmHg 80%
    17:00 -20°C° 0 mm 5 mps 771 mmHg 82%
    18:00 -21°C° 0 mm 5 mps 771 mmHg 84%
    19:00 -22°C° 0 mm 5 mps 772 mmHg 86%
    20:00 -22°C° 0 mm 5 mps 772 mmHg 86%
    21:00 -24°C° 0 mm 5 mps 772 mmHg 86%
    22:00 -24°C° 0 mm 5 mps 773 mmHg 87%
    23:00 -24°C° 0 mm 5 mps 773 mmHg 88%

    28 February, Wednesday

    Time Temperature Precipitation Wind Pressure Humidity
    00:00 -25°C° 0 mm 5 mps 773 mmHg 89%
    01:00 -25°C° 0 mm 5 mps 773 mmHg 90%
    02:00 -25°C° 0 mm 5 mps 773 mmHg 91%
    03:00 -25°C° 0 mm 5 mps 773 mmHg 91%
    04:00 -25°C° 0 mm 5 mps 773 mmHg 92%
    05:00 -25°C° 0 mm 5 mps 773 mmHg 92%
    06:00 -25°C° 0 mm 5 mps 773 mmHg 92%
    07:00 -25°C° 0 mm 5 mps 773 mmHg 91%
    08:00 -22°C° 0 mm 5 mps 773 mmHg 88%
    09:00 -21°C° 0 mm 5 mps 773 mmHg 84%
    10:00 -21°C° 0 mm 6 mps 773 mmHg 80%
    11:00 -20°C° 0 mm 5 mps 773 mmHg 79%
    12:00 -19°C° 0 mm 5 mps 773 mmHg 78%
    13:00 -18°C° 0 mm 5 mps 773 mmHg 77%
    14:00 -18°C° 0 mm 5 mps 773 mmHg 79%
    15:00 -18°C° 0 mm 5 mps 772 mmHg 81%
    16:00 -18°C° 0 mm 5 mps 772 mmHg 82%
    17:00 -18°C° 0 mm 4 mps 772 mmHg 85%
    18:00 -19°C° 0 mm 4 mps 772 mmHg 87%
    19:00 -19°C° 0 mm 4 mps 772 mmHg 90%
    20:00 -20°C° 0 mm 4 mps 772 mmHg 91%
    21:00 -19°C° 0 mm 3 mps 772 mmHg 92%
    22:00 -21°C° 0 mm 3 mps 772 mmHg 93%
    23:00 -21°C° 0 mm 3 mps 771 mmHg 93%
    Show more